JCSAT-12 (JCSAT-RA)

Last updated on Tue Sep 16 2025 00:02:46 GMT+0000 (Coordinated Universal Time)

1 35755U 09044A 25258.56136775 -.00000344 00000+0 00000+0 0 9994 2 35755 0.0350 267.1348 0001632 323.5612 98.2303 1.00271455 58856
UTC large
Height (km)
Speed (km/s)
/
Latitude / Longitude
Inclination (degrees)
Orbital Period (minutes)
Azimuth
Elevation
Range (km)
Doppler Factor

Next 0 passes for location: London (51.5072 / 0.1276)

Sorry there are no passes over London.